Regional Weather Roundup
Issued by NWS Bismarck, ND

Home | Current Version | Previous Version | Text Only | Print | Product List | Glossary On
Versions: 1 2 3 4 5 6 7 8 9 10 11 12 13 14 15 16 17 18 19 20 21 22 23 24 25 26 27 28 29 30 31 32 33 34 35 36 37 38 39 40 41 42 43 44 45 46 47 48 49 50
000
ASUS43 KBIS 221610
RWRBIS

NWR BROADCAST TEXT
NATIONAL WEATHER SERVICE BISMARCK ND
1000 AM CST WED FEB 22 2017

NOTE: "FAIR" INDICATES FEW OR NO CLOUDS BELOW 12,000 FEET WITH NO
SIGNIFICANT WEATHER AND/OR OBSTRUCTIONS TO VISIBILITY.


CITY           SKY/WX    TMP DP  RH WIND       PRES   REMARKS
WILLISTON      CLOUDY    30  26  85 N15       29.87R WCI  19
MINOT          CLOUDY    32  28  85 N15       29.81R
MINOT AFB      CLOUDY    31  27  86 N12       29.81R
BISMARCK       LGT SNOW  34  33  96 N6        29.75R FOG
DICKINSON      LGT SNOW  29  27  92 N12       29.76R VSB 3/4 WCI  19
GARRISON         N/A     31  29  92 N14G22    29.77R
HETTINGER ARPT LGT SNOW  32  31  96 N7        29.76R VSB 1
JAMESTOWN      LGT SNOW  33  32  96 N14       29.69R FOG
CARRINGTON     CLOUDY    32  32 100 NE16      29.75R FOG
HAZEN          HVY SNOW N/A N/A N/A N13       29.80R
MANDAN         LGT SNOW  32  32 100 N14       29.75R
RUGBY            N/A     32  32 100 NE15      29.79R
STANLEY        CLOUDY    28  28 100 N10       29.84R WCI  19
TIOGA          CLOUDY    28  28 100 NE14      29.86R WCI  17
WATFORD CITY   LGT SNOW  30  30 100 NE8       29.85R
$$

CITY           SKY/WX    TMP DP  RH WIND       PRES   REMARKS
GRAND FORKS    DRIZZLE   34  29  82 N20       29.75R
GRAND FORKS AF LGT RAIN  33  33 100 NE17G23   29.75R FOG
DEVILS LAKE    CLOUDY    32  30  92 NE20      29.77R
FARGO          FOG       33  33 100 N9        29.69R VSB 3/4
CAVALIER         N/A     32  30  93 N10       29.81R
GRAFTON        PTSUNNY   32  32 100 N13       29.79R
GWINNER        CLOUDY    34  34 100 NE14      29.64F VSB 3/4
ROLLA          CLOUDY    28  28 100 NE14      29.80R WCI  17
$$

CITY           SKY/WX    TMP DP  RH WIND       PRES   REMARKS
ABERDEEN       CLOUDY    39  33  79 N12       29.67R
MOBRIDGE       FAIR      41  35  79 NW9       29.68R
BUFFALO          N/A     38  36  92 NW10      29.69R
RAPID CITY     FAIR      51  27  39 NW23      29.74F
GLASGOW        LGT SNOW  31  28  89 NE10      29.91R FOG
SIDNEY         CLOUDY    31  29  92 N13       29.87R
WOLF POINT     LGT SNOW  31  25  78 N7        29.92R
GLENDIVE       CLOUDY    30  28  92 N10       29.86R
MILES CITY     LGT SNOW  33  32  96 N9        29.85R FOG
BAKER          CLOUDY    31  30  96 N15       29.79R
$$

CITY           SKY/WX    TMP DP  RH WIND       PRES   REMARKS
BILLINGS       CLOUDY    38  28  67 NW12      29.87R
GREAT FALLS    CLOUDY    32  30  92 SW5       29.87R
REGINA         CLOUDY    30  25  80 NW7       29.90R
ESTEVAN        CLOUDY    28  25  86 N12       29.88R WCI  18
$$





USA.gov is the U.S. government's official web portal to all federal, state and local government web resources and services.